Location: Fours
(44.3167°N, 6.7000°E)
Time: 20:14:49
(UTC+00:00)

Timation 2 Rocket - Pass Details

Date: 30 May 2022
Orbit: 904 x 1076 km, 70.0° (Epoch: 25 June)

Event Time Altitude Azimuth Distance (km) Brightness Sun altitude
Rises 21:17:30 0° 320° (NW) 3,774 8.8 -17.1°
Reaches altitude 10° 21:20:47 10° 304° (NW) 2,846 7.4 -17.4°
Maximum altitude 21:25:21 20° 261° (W) 2,234 6.1 -17.9°
Drops below altitude 10° 21:29:59 10° 217° (SW) 2,890 6.2 -18.3°
Enters shadow 21:31:42 - 208° (SSW) 3,351 6.5 -18.4°
